Time,TemperatureF,DewpointF,PressureIn,WindDirection,WindDirectionDegrees,WindSpeedMPH,WindSpeedGustMPH,Humidity,HourlyPrecipIn,Conditions,Clouds,dailyrainin,SoftwareType,DateUTC
2013-03-05 00:01:00,25.0,19.0,-100.00,ESE,119,4.0,5.0,79,0.00,,,-99.99,,2013-03-05 07:01:00,
2013-03-05 00:11:00,26.0,19.0,-100.00,SE,131,5.0,7.0,75,0.00,,,-99.99,,2013-03-05 07:11:00,
2013-03-05 00:21:00,26.0,19.0,-100.00,ESE,121,6.0,7.0,75,0.00,,,-99.99,,2013-03-05 07:21:00,
2013-03-05 00:31:00,26.0,19.0,-100.00,ESE,121,6.0,7.0,75,0.00,,,-99.99,,2013-03-05 07:31:00,
2013-03-05 00:41:00,25.0,18.0,-100.00,ESE,123,5.0,6.0,74,0.00,,,-99.99,,2013-03-05 07:41:00,
2013-03-05 00:52:00,25.0,18.0,-100.00,ESE,119,6.0,7.0,73,0.00,,,-99.99,,2013-03-05 07:52:00,
2013-03-05 01:01:00,25.0,18.0,-100.00,ESE,119,6.0,7.0,73,0.00,,,-99.99,,2013-03-05 08:01:00,
2013-03-05 01:11:00,25.0,17.0,-100.00,ESE,102,5.0,6.0,71,0.00,,,-99.99,,2013-03-05 08:11:00,
2013-03-05 01:21:00,24.0,18.0,-100.00,ENE,75,4.0,5.0,79,0.00,,,-99.99,,2013-03-05 08:21:00,
2013-03-05 01:31:00,24.0,18.0,-100.00,ENE,75,4.0,5.0,79,0.00,,,-99.99,,2013-03-05 08:31:00,
2013-03-05 01:41:00,23.0,17.0,-100.00,ENE,64,4.0,5.0,79,0.00,,,-99.99,,2013-03-05 08:41:00,
2013-03-05 01:52:00,23.0,17.0,-100.00,ENE,69,4.0,5.0,79,0.00,,,-99.99,,2013-03-05 08:52:00,
2013-03-05 02:01:00,23.0,17.0,-100.00,ENE,69,4.0,5.0,79,0.00,,,-99.99,,2013-03-05 09:01:00,
2013-03-05 02:11:00,23.0,17.0,-100.00,East,79,4.0,5.0,76,0.00,,,-99.99,,2013-03-05 09:11:00,
2013-03-05 02:21:00,22.0,16.0,-100.00,ENE,73,2.0,3.0,77,0.00,,,-99.99,,2013-03-05 09:21:00,
2013-03-05 02:31:00,22.0,16.0,-100.00,ENE,73,2.0,3.0,77,0.00,,,-99.99,,2013-03-05 09:31:00,
2013-03-05 02:42:00,21.0,16.0,-100.00,ENE,75,2.0,3.0,80,0.00,,,-99.99,,2013-03-05 09:42:00,
2013-03-05 02:52:00,19.0,16.0,-100.00,North,8,2.0,3.0,87,0.00,,,-99.99,,2013-03-05 09:52:00,
2013-03-05 03:01:00,19.0,16.0,-100.00,North,8,2.0,3.0,87,0.00,,,-99.99,,2013-03-05 10:01:00,
2013-03-05 03:11:00,20.0,16.0,-100.00,NNE,14,2.0,3.0,86,0.00,,,-99.99,,2013-03-05 10:11:00,
2013-03-05 03:21:00,20.0,16.0,-100.00,NNE,18,2.0,3.0,87,0.00,,,-99.99,,2013-03-05 10:21:00,
2013-03-05 03:32:00,20.0,16.0,-100.00,NNE,18,2.0,3.0,87,0.00,,,-99.99,,2013-03-05 10:32:00,
2013-03-05 03:41:00,19.0,16.0,-100.00,NE,40,3.0,4.0,87,0.00,,,-99.99,,2013-03-05 10:41:00,
2013-03-05 03:52:00,20.0,16.0,-100.00,NE,34,4.0,5.0,83,0.00,,,-99.99,,2013-03-05 10:52:00,
2013-03-05 04:01:00,20.0,16.0,-100.00,NE,34,4.0,5.0,83,0.00,,,-99.99,,2013-03-05 11:01:00,
2013-03-05 04:11:00,20.0,15.0,-100.00,NNE,31,4.0,4.0,81,0.00,,,-99.99,,2013-03-05 11:11:00,
2013-03-05 04:21:00,20.0,15.0,-100.00,NNE,31,4.0,4.0,81,0.00,,,-99.99,,2013-03-05 11:21:00,
2013-03-05 04:32:00,20.0,15.0,-100.00,NNE,31,4.0,4.0,81,0.00,,,-99.99,,2013-03-05 11:32:00,
2013-03-05 04:41:00,18.0,15.0,-100.00,North,7,5.0,6.0,85,0.00,,,-99.99,,2013-03-05 11:41:00,
2013-03-05 04:52:00,18.0,16.0,-100.00,North,10,4.0,5.0,89,0.00,,,-99.99,,2013-03-05 11:52:00,
2013-03-05 05:02:00,18.0,16.0,-100.00,North,10,4.0,5.0,89,0.00,,,-99.99,,2013-03-05 12:02:00,
2013-03-05 05:11:00,18.0,16.0,-100.00,North,8,5.0,6.0,91,0.00,,,-99.99,,2013-03-05 12:11:00,
2013-03-05 05:22:00,18.0,16.0,-100.00,North,8,5.0,6.0,91,0.00,,,-99.99,,2013-03-05 12:22:00,
2013-03-05 05:32:00,18.0,16.0,-100.00,North,8,5.0,6.0,91,0.00,,,-99.99,,2013-03-05 12:32:00,
2013-03-05 05:42:00,18.0,16.0,-100.00,North,6,6.0,7.0,92,0.00,,,-99.99,,2013-03-05 12:42:00,
2013-03-05 05:52:00,18.0,16.0,-100.00,North,7,6.0,8.0,92,0.00,,,-99.99,,2013-03-05 12:52:00,
2013-03-05 06:02:00,18.0,16.0,-100.00,North,7,6.0,8.0,92,0.00,,,-99.99,,2013-03-05 13:02:00,
2013-03-05 06:11:00,19.0,16.0,-100.00,North,360,8.0,9.0,89,0.00,,,-99.99,,2013-03-05 13:11:00,
2013-03-05 06:21:00,19.0,16.0,-100.00,North,4,8.0,9.0,88,0.00,,,-99.99,,2013-03-05 13:21:00,
2013-03-05 06:31:00,19.0,16.0,-100.00,North,4,8.0,9.0,88,0.00,,,-99.99,,2013-03-05 13:31:00,
2013-03-05 06:42:00,19.0,16.0,-100.00,North,8,8.0,9.0,88,0.00,,,-99.99,,2013-03-05 13:42:00,
2013-03-05 06:52:00,19.0,15.0,-100.00,North,6,9.0,10.0,87,0.00,,,-99.99,,2013-03-05 13:52:00,
2013-03-05 07:02:00,19.0,15.0,-100.00,North,6,9.0,10.0,87,0.00,,,-99.99,,2013-03-05 14:02:00,
2013-03-05 07:11:00,19.0,15.0,-100.00,North,7,9.0,11.0,86,0.00,,,-99.99,,2013-03-05 14:11:00,
2013-03-05 07:21:00,19.0,15.0,-100.00,North,4,9.0,11.0,86,0.00,,,-99.99,,2013-03-05 14:21:00,
2013-03-05 07:31:00,19.0,15.0,-100.00,North,4,9.0,11.0,86,0.00,,,-99.99,,2013-03-05 14:31:00,
2013-03-05 07:41:00,19.0,16.0,-100.00,North,4,10.0,12.0,86,0.00,,,-99.99,,2013-03-05 14:41:00,
2013-03-05 07:52:00,19.0,16.0,-100.00,North,4,10.0,12.0,86,0.00,,,-99.99,,2013-03-05 14:52:00,
2013-03-05 08:01:00,19.0,16.0,-100.00,North,4,10.0,12.0,86,0.00,,,-99.99,,2013-03-05 15:01:00,
2013-03-05 08:11:00,19.0,16.0,-100.00,North,4,10.0,12.0,86,0.00,,,-99.99,,2013-03-05 15:11:00,
2013-03-05 08:21:00,21.0,16.0,-100.00,North,6,10.0,12.0,83,0.00,,,-99.99,,2013-03-05 15:21:00,
2013-03-05 08:32:00,21.0,16.0,-100.00,North,6,10.0,12.0,83,0.00,,,-99.99,,2013-03-05 15:32:00,
2013-03-05 08:42:00,22.0,17.0,-100.00,North,8,11.0,13.0,78,0.00,,,-99.99,,2013-03-05 15:42:00,
2013-03-05 08:52:00,22.0,17.0,-100.00,North,8,11.0,13.0,78,0.00,,,-99.99,,2013-03-05 15:52:00,
2013-03-05 09:01:00,22.0,17.0,-100.00,North,8,11.0,13.0,78,0.00,,,-99.99,,2013-03-05 16:01:00,
2013-03-05 09:11:00,24.0,16.0,-100.00,North,10,13.0,15.0,71,0.00,,,-99.99,,2013-03-05 16:11:00,
2013-03-05 09:21:00,25.0,17.0,-100.00,NNE,21,14.0,16.0,69,0.00,,,-99.99,,2013-03-05 16:21:00,
2013-03-05 09:32:00,25.0,17.0,-100.00,NNE,21,14.0,16.0,69,0.00,,,-99.99,,2013-03-05 16:32:00,
2013-03-05 09:41:00,27.0,17.0,-100.00,NNE,21,14.0,17.0,66,0.00,,,-99.99,,2013-03-05 16:41:00,
2013-03-05 09:52:00,27.0,17.0,-100.00,NNE,21,14.0,17.0,66,0.00,,,-99.99,,2013-03-05 16:52:00,
2013-03-05 10:01:00,27.0,17.0,-100.00,NNE,21,14.0,17.0,66,0.00,,,-99.99,,2013-03-05 17:01:00,
2013-03-05 10:11:00,27.0,18.0,-100.00,NNE,16,13.0,15.0,66,0.00,,,-99.99,,2013-03-05 17:11:00,
2013-03-05 10:21:00,28.0,17.0,-100.00,NNE,24,14.0,15.0,61,0.00,,,-99.99,,2013-03-05 17:21:00,
2013-03-05 10:32:00,28.0,17.0,-100.00,NNE,24,14.0,15.0,61,0.00,,,-99.99,,2013-03-05 17:32:00,
2013-03-05 10:42:00,30.0,17.0,-100.00,NNE,24,12.0,15.0,58,0.00,,,-99.99,,2013-03-05 17:42:00,
2013-03-05 10:52:00,31.0,16.0,-100.00,NNE,25,12.0,14.0,55,0.00,,,-99.99,,2013-03-05 17:52:00,
2013-03-05 11:01:00,31.0,16.0,-100.00,NNE,25,12.0,14.0,55,0.00,,,-99.99,,2013-03-05 18:01:00,
2013-03-05 11:11:00,32.0,17.0,-100.00,NNE,20,12.0,14.0,53,0.00,,,-99.99,,2013-03-05 18:11:00,
2013-03-05 11:21:00,32.0,16.0,-100.00,NNE,20,13.0,15.0,51,0.00,,,-99.99,,2013-03-05 18:21:00,
2013-03-05 11:31:00,32.0,16.0,-100.00,NNE,20,13.0,15.0,51,0.00,,,-99.99,,2013-03-05 18:31:00,
2013-03-05 11:41:00,33.0,16.0,-100.00,North,11,14.0,16.0,49,0.00,,,-99.99,,2013-03-05 18:41:00,
2013-03-05 11:53:00,33.0,15.0,-100.00,NNE,20,13.0,15.0,47,0.00,,,-99.99,,2013-03-05 18:53:00,
2013-03-05 12:01:00,33.0,15.0,-100.00,NNE,20,13.0,15.0,47,0.00,,,-99.99,,2013-03-05 19:01:00,
2013-03-05 12:11:00,33.0,15.0,-100.00,NNE,20,13.0,15.0,47,0.00,,,-99.99,,2013-03-05 19:11:00,
2013-03-05 12:21:00,34.0,17.0,-100.00,NNE,13,17.0,19.0,50,0.00,,,-99.99,,2013-03-05 19:21:00,
2013-03-05 12:31:00,34.0,17.0,-100.00,NNE,13,17.0,19.0,50,0.00,,,-99.99,,2013-03-05 19:31:00,
2013-03-05 12:42:00,35.0,17.0,-100.00,NNE,28,12.0,15.0,47,0.00,,,-99.99,,2013-03-05 19:42:00,
2013-03-05 12:52:00,36.0,16.0,-100.00,NNE,14,14.0,17.0,43,0.00,,,-99.99,,2013-03-05 19:52:00,
2013-03-05 13:01:00,36.0,16.0,-100.00,NNE,14,14.0,17.0,43,0.00,,,-99.99,,2013-03-05 20:01:00,
2013-03-05 13:11:00,36.0,18.0,-100.00,NNE,14,13.0,17.0,47,0.00,,,-99.99,,2013-03-05 20:11:00,
2013-03-05 13:21:00,36.0,18.0,-100.00,NNE,14,13.0,17.0,47,0.00,,,-99.99,,2013-03-05 20:21:00,
2013-03-05 13:32:00,36.0,18.0,-100.00,NNE,14,13.0,17.0,47,0.00,,,-99.99,,2013-03-05 20:32:00,
2013-03-05 13:41:00,37.0,18.0,-100.00,NNE,16,12.0,14.0,45,0.00,,,-99.99,,2013-03-05 20:41:00,
2013-03-05 13:52:00,38.0,19.0,-100.00,NNE,23,12.0,15.0,46,0.00,,,-99.99,,2013-03-05 20:52:00,
2013-03-05 14:01:00,38.0,19.0,-100.00,NNE,23,12.0,15.0,46,0.00,,,-99.99,,2013-03-05 21:01:00,
2013-03-05 14:11:00,38.0,20.0,-100.00,NNE,20,13.0,15.0,49,0.00,,,-99.99,,2013-03-05 21:11:00,
2013-03-05 14:21:00,38.0,20.0,-100.00,NNE,20,13.0,15.0,49,0.00,,,-99.99,,2013-03-05 21:21:00,
2013-03-05 14:31:00,38.0,20.0,-100.00,NNE,20,13.0,15.0,49,0.00,,,-99.99,,2013-03-05 21:31:00,
2013-03-05 14:41:00,38.0,20.0,-100.00,NNE,20,13.0,15.0,49,0.00,,,-99.99,,2013-03-05 21:41:00,
2013-03-05 14:52:00,38.0,21.0,-100.00,NNE,30,12.0,15.0,50,0.00,,,-99.99,,2013-03-05 21:52:00,
2013-03-05 15:01:00,38.0,21.0,-100.00,NNE,30,12.0,15.0,50,0.00,,,-99.99,,2013-03-05 22:01:00,
2013-03-05 15:11:00,38.0,21.0,-100.00,NNE,30,12.0,15.0,50,0.00,,,-99.99,,2013-03-05 22:11:00,
2013-03-05 15:21:00,38.0,21.0,-100.00,NNE,24,14.0,17.0,50,0.00,,,-99.99,,2013-03-05 22:21:00,
2013-03-05 15:31:00,38.0,21.0,-100.00,NNE,24,14.0,17.0,50,0.00,,,-99.99,,2013-03-05 22:31:00,
2013-03-05 15:42:00,38.0,21.0,-100.00,NNE,24,14.0,17.0,50,0.00,,,-99.99,,2013-03-05 22:42:00,
2013-03-05 15:52:00,39.0,20.0,-100.00,NNE,17,14.0,17.0,47,0.00,,,-99.99,,2013-03-05 22:52:00,
2013-03-05 16:01:00,39.0,20.0,-100.00,NNE,17,14.0,17.0,47,0.00,,,-99.99,,2013-03-05 23:01:00,
2013-03-05 16:11:00,38.0,21.0,-100.00,NNE,20,14.0,17.0,50,0.00,,,-99.99,,2013-03-05 23:11:00,
2013-03-05 16:21:00,38.0,21.0,-100.00,NNE,20,14.0,17.0,50,0.00,,,-99.99,,2013-03-05 23:21:00,
2013-03-05 16:32:00,38.0,21.0,-100.00,NNE,20,14.0,17.0,50,0.00,,,-99.99,,2013-03-05 23:32:00,
2013-03-05 16:41:00,38.0,22.0,-100.00,NNE,21,13.0,16.0,53,0.00,,,-99.99,,2013-03-05 23:41:00,
2013-03-05 16:52:00,38.0,22.0,-100.00,NNE,21,13.0,16.0,53,0.00,,,-99.99,,2013-03-05 23:52:00,
2013-03-05 17:01:00,38.0,22.0,-100.00,NNE,21,13.0,16.0,53,0.00,,,-99.99,,2013-03-06 00:01:00,
2013-03-05 17:11:00,37.0,21.0,-100.00,NNE,18,17.0,19.0,53,0.00,,,-99.99,,2013-03-06 00:11:00,
2013-03-05 17:21:00,38.0,22.0,-100.00,NNE,25,13.0,15.0,52,0.00,,,-99.99,,2013-03-06 00:21:00,
2013-03-05 17:32:00,38.0,22.0,-100.00,NNE,25,13.0,15.0,52,0.00,,,-99.99,,2013-03-06 00:32:00,
2013-03-05 17:41:00,37.0,22.0,-100.00,NNE,17,15.0,17.0,54,0.00,,,-99.99,,2013-03-06 00:41:00,
2013-03-05 17:52:00,37.0,22.0,-100.00,NNE,17,15.0,17.0,54,0.00,,,-99.99,,2013-03-06 00:52:00,
2013-03-05 18:01:00,37.0,22.0,-100.00,NNE,17,15.0,17.0,54,0.00,,,-99.99,,2013-03-06 01:01:00,
2013-03-05 18:11:00,36.0,22.0,-100.00,NNE,18,12.0,16.0,57,0.00,,,-99.99,,2013-03-06 01:11:00,
2013-03-05 18:21:00,34.0,22.0,-100.00,NNE,14,14.0,18.0,61,0.00,,,-99.99,,2013-03-06 01:21:00,
2013-03-05 18:31:00,34.0,22.0,-100.00,NNE,14,14.0,18.0,61,0.00,,,-99.99,,2013-03-06 01:31:00,
2013-03-05 18:42:00,33.0,22.0,-100.00,NNE,16,12.0,14.0,62,0.00,,,-99.99,,2013-03-06 01:42:00,
2013-03-05 18:52:00,32.0,23.0,-100.00,NNE,13,9.0,12.0,67,0.00,,,-99.99,,2013-03-06 01:52:00,
2013-03-05 19:01:00,32.0,23.0,-100.00,NNE,13,9.0,12.0,67,0.00,,,-99.99,,2013-03-06 02:01:00,
2013-03-05 19:11:00,32.0,23.0,-100.00,NNE,13,9.0,12.0,67,0.00,,,-99.99,,2013-03-06 02:11:00,
2013-03-05 19:21:00,32.0,24.0,-100.00,North,7,10.0,12.0,72,0.00,,,-99.99,,2013-03-06 02:21:00,
2013-03-05 19:31:00,32.0,24.0,-100.00,North,7,10.0,12.0,72,0.00,,,-99.99,,2013-03-06 02:31:00,
2013-03-05 19:41:00,31.0,24.0,-100.00,North,7,9.0,10.0,74,0.00,,,-99.99,,2013-03-06 02:41:00,
2013-03-05 19:52:00,31.0,23.0,-100.00,North,10,11.0,13.0,74,0.00,,,-99.99,,2013-03-06 02:52:00,
2013-03-05 20:01:00,31.0,23.0,-100.00,North,10,11.0,13.0,74,0.00,,,-99.99,,2013-03-06 03:01:00,
2013-03-05 20:11:00,31.0,23.0,-100.00,North,6,9.0,12.0,72,0.00,,,-99.99,,2013-03-06 03:11:00,
2013-03-05 20:21:00,31.0,23.0,-100.00,North,6,9.0,12.0,72,0.00,,,-99.99,,2013-03-06 03:21:00,
2013-03-05 20:31:00,31.0,23.0,-100.00,North,6,9.0,12.0,72,0.00,,,-99.99,,2013-03-06 03:31:00,
2013-03-05 20:41:00,31.0,21.0,-100.00,North,4,11.0,13.0,67,0.00,,,-99.99,,2013-03-06 03:41:00,
2013-03-05 20:52:00,31.0,21.0,-100.00,North,4,14.0,17.0,66,0.00,,,-99.99,,2013-03-06 03:52:00,
2013-03-05 21:01:00,31.0,21.0,-100.00,North,4,14.0,17.0,66,0.00,,,-99.99,,2013-03-06 04:01:00,
2013-03-05 21:11:00,31.0,21.0,-100.00,NNE,13,14.0,17.0,66,0.00,,,-99.99,,2013-03-06 04:11:00,
2013-03-05 21:21:00,31.0,21.0,-100.00,NNE,13,14.0,17.0,66,0.00,,,-99.99,,2013-03-06 04:21:00,
2013-03-05 21:31:00,31.0,21.0,-100.00,NNE,13,14.0,17.0,66,0.00,,,-99.99,,2013-03-06 04:31:00,
2013-03-05 21:41:00,30.0,22.0,-100.00,North,359,8.0,10.0,69,0.00,,,-99.99,,2013-03-06 04:41:00,
2013-03-05 21:52:00,29.0,22.0,-100.00,North,0,9.0,10.0,75,0.00,,,-99.99,,2013-03-06 04:52:00,
2013-03-05 22:01:00,29.0,22.0,-100.00,North,0,9.0,10.0,75,0.00,,,-99.99,,2013-03-06 05:01:00,
2013-03-05 22:11:00,29.0,22.0,-100.00,North,6,8.0,10.0,76,0.00,,,-99.99,,2013-03-06 05:11:00,
2013-03-05 22:22:00,29.0,22.0,-100.00,North,6,8.0,10.0,76,0.00,,,-99.99,,2013-03-06 05:22:00,
2013-03-05 22:32:00,29.0,22.0,-100.00,North,6,8.0,10.0,76,0.00,,,-99.99,,2013-03-06 05:32:00,
2013-03-05 22:42:00,29.0,22.0,-100.00,North,4,9.0,11.0,76,0.00,,,-99.99,,2013-03-06 05:42:00,
2013-03-05 22:52:00,28.0,22.0,-100.00,North,6,10.0,11.0,76,0.00,,,-99.99,,2013-03-06 05:52:00,
2013-03-05 23:01:00,28.0,22.0,-100.00,North,6,10.0,11.0,76,0.00,,,-99.99,,2013-03-06 06:01:00,
2013-03-05 23:11:00,28.0,22.0,-100.00,North,4,10.0,11.0,76,0.00,,,-99.99,,2013-03-06 06:11:00,
2013-03-05 23:22:00,29.0,21.0,-100.00,North,7,10.0,12.0,74,0.00,,,-99.99,,2013-03-06 06:22:00,
2013-03-05 23:31:00,29.0,21.0,-100.00,North,7,10.0,12.0,74,0.00,,,-99.99,,2013-03-06 06:31:00,
2013-03-05 23:41:00,29.0,21.0,-100.00,North,10,12.0,14.0,73,0.00,,,-99.99,,2013-03-06 06:41:00,
2013-03-05 23:52:00,29.0,21.0,-100.00,North,10,12.0,14.0,73,0.00,,,-99.99,,2013-03-06 06:52:00,